Location: Arroyo de Valdeoliva
(40.1604°N, 4.9878°W)
Time: 16:48:23
(UTC+00:00)

Cosmos 2180 Rocket - Pass Details

Date: 11 December 2025
Orbit: 954 x 1003 km, 82.9° (Epoch: 16 January)

Event Time Altitude Azimuth Distance (km) Brightness Sun altitude
Rises 17:22:22 0° 184° (S) 3,614 7.9 -5.6°
Reaches altitude 10° 17:24:51 10° 183° (S) 2,672 7.2 -6.0°
Maximum altitude 17:30:57 86° 96° (E) 963 4.5 -7.1°
Drops below altitude 10° 17:37:08 10° 8° (N) 2,701 6.5 -8.1°
Sets 17:39:39 0° 8° (N) 3,656 7.2 -8.6°
